Weather History for Perry, FL

Change the Weather History Date:

Tuesday, August 6, 2013

  Actual Average (KCTY) Record (KCTY)
Temperature  
Mean Temperature 84 °F 82 °F  
Max Temperature 95 °F 91 °F 95 °F (2006)
Min Temperature 73 °F 72 °F 70 °F (1998)
Degree Days  
Heating Degree Days 0 0  
Month to date heating degree days 0  
Since 1 June heating degree days 0  
Since 1 July heating degree days 0  
Cooling Degree Days 19 17  
Month to date cooling degree days 102  
Year to date cooling degree days 1536  
Since 1 June cooling degree days 1057  
Growing Degree Days 34 (Base 50)    
Moisture  
Dew Point 74 °F    
Average Humidity 83    
Maximum Humidity 94    
Minimum Humidity 50    
Precipitation  
Precipitation 0.76 in 0.22 in 0.61 in (2010)
Month to date precipitation 1.42  
Year to date precipitation 29.34  
Sea Level Pressure  
Sea Level Pressure 29.96 in    
Wind  
Wind Speed 2 mph (East)    
Max Wind Speed 14 mph    
Max Gust Speed 22 mph    
Visibility 6 miles    
Events Fog , Rain , Thunderstorm    
T = Trace of Precipitation, MM = Missing Value Source: NWS Daily Summary

Daily Weather History Graph

Daily Weather History Graph

Search for Another Location

Airport:

Trip Planner

Search our weather history database for the weather conditions in past years. The results will help you decide how hot, cold, wet, or windy it might be!

Date:

Astronomy

Aug. 06, 2013 Rise Set
Actual Time 6:56 AM EDT 8:23 PM EDT
Civil Twilight 6:30 AM EDT 8:49 PM EDT
Nautical Twilight 6:00 AM EDT 9:19 PM EDT
Astronomical Twilight 5:28 AM EDT 9:51 PM EDT
Moon 6:42 AM EDT (8/6) 8:04 PM EDT (8/6)
Length of Visible Light 14h 18m
Length of Day
13h 27m
Waning Crescent, 0% of the Moon is Illuminated
Aug 6
Waning Crescent
Aug 6
New
Aug 14
First Quarter
Aug 20
Full
Aug 28
Last Quarter

Hourly Weather History & Observations

Time (EDT) Temp. Heat Index Dew Point Humidity Pressure Visibility Wind Dir Wind Speed Gust Speed Precip Events Conditions
12:15 AM 78.8 °F - 75.2 °F 89% 29.97 in 10.0 mi SW 3.5 mph - N/A   Clear
12:35 AM 78.8 °F - 75.2 °F 89% 29.97 in 10.0 mi Calm Calm - N/A   Clear
12:53 AM 81.0 °F 87.3 °F 75.9 °F 85% 29.95 in - Calm Calm - N/A   Unknown
12:55 AM 78.8 °F - 75.2 °F 89% 29.96 in 10.0 mi Calm Calm - N/A   Clear
1:15 AM 78.8 °F - 75.2 °F 89% 29.96 in 10.0 mi Calm Calm - N/A   Clear
1:35 AM 78.8 °F - 75.2 °F 89% 29.95 in 7.0 mi Calm Calm - N/A   Clear
1:53 AM 79.0 °F - 75.9 °F 90% 29.94 in - Calm Calm - N/A   Unknown
1:55 AM 77.0 °F - 73.4 °F 89% 29.95 in 7.0 mi Calm Calm - N/A   Clear
2:15 AM 77.0 °F - 75.2 °F 94% 29.95 in 7.0 mi Calm Calm - N/A   Scattered Clouds
2:35 AM 77.0 °F - 75.2 °F 94% 29.94 in 7.0 mi Calm Calm - N/A   Scattered Clouds
2:53 AM 79.0 °F - 75.0 °F 88% 29.92 in - Calm Calm - N/A   Unknown
2:55 AM 77.0 °F - 73.4 °F 89% 29.93 in 7.0 mi Calm Calm - N/A   Clear
3:15 AM 77.0 °F - 73.4 °F 89% 29.93 in 4.0 mi Calm Calm - N/A   Clear
3:35 AM 77.0 °F - 73.4 °F 89% 29.92 in 5.0 mi Calm Calm - N/A   Clear
3:53 AM 78.1 °F - 75.0 °F 90% 29.90 in - Calm Calm - N/A   Unknown
3:55 AM 77.0 °F - 73.4 °F 89% 29.92 in 4.0 mi Calm Calm - N/A   Clear
4:15 AM 77.0 °F - 73.4 °F 89% 29.91 in 3.0 mi Calm Calm - N/A   Clear
4:35 AM 77.0 °F - 73.4 °F 89% 29.90 in 2.5 mi Calm Calm - N/A   Mostly Cloudy
4:53 AM 78.1 °F - 75.0 °F 90% 29.90 in - Calm Calm - N/A   Unknown
4:55 AM 77.0 °F - 73.4 °F 89% 29.91 in 1.0 mi Calm Calm - N/A   Overcast
5:15 AM 75.2 °F - 73.4 °F 94% 29.91 in 1.0 mi Calm Calm - N/A   Overcast
5:35 AM 75.2 °F - 73.4 °F 94% 29.91 in 0.8 mi Calm Calm - N/A   Overcast
5:53 AM 77.0 °F - 75.0 °F 94% 29.91 in - Calm Calm - N/A   Unknown
5:55 AM 75.2 °F - 73.4 °F 94% 29.92 in 1.2 mi Calm Calm - N/A   Overcast
6:15 AM 75.2 °F - 73.4 °F 94% 29.92 in 1.5 mi Calm Calm - N/A   Overcast
6:35 AM 75.2 °F - 73.4 °F 94% 29.93 in 0.8 mi Calm Calm - N/A   Overcast
6:53 AM 77.0 °F - 75.0 °F 94% 29.92 in - Calm Calm - N/A   Unknown
6:55 AM 75.2 °F - 73.4 °F 94% 29.93 in 0.8 mi Calm Calm - N/A   Overcast
7:15 AM 75.2 °F - 73.4 °F 94% 29.93 in 0.5 mi Calm Calm - N/A Fog Fog
7:35 AM 75.2 °F - 73.4 °F 94% 29.95 in 0.5 mi Calm Calm - N/A Fog Fog
7:53 AM 77.0 °F - 75.0 °F 94% 29.94 in - Calm Calm - N/A   Unknown
7:55 AM 75.2 °F - 73.4 °F 94% 29.95 in 0.2 mi Calm Calm - N/A Fog Fog
8:15 AM 77.0 °F - 73.4 °F 89% 29.96 in 0.2 mi Calm Calm - N/A Fog Fog
8:35 AM 77.0 °F - 73.4 °F 89% 29.97 in 0.2 mi Calm Calm - N/A Fog Fog
8:53 AM 78.1 °F - 75.9 °F 93% 29.97 in - NNE 4.6 mph - N/A   Unknown
8:55 AM 77.0 °F - 73.4 °F 89% 29.98 in 0.8 mi North 4.6 mph - N/A   Overcast
9:15 AM 77.0 °F - 75.2 °F 94% 29.99 in 1.2 mi NE 4.6 mph - N/A   Overcast
9:35 AM 77.0 °F - 75.2 °F 94% 29.99 in 3.0 mi East 3.5 mph - N/A   Overcast
9:53 AM 80.1 °F 85.4 °F 75.9 °F 87% 29.98 in - ESE 5.8 mph - N/A   Unknown
9:55 AM 78.8 °F - 77.0 °F 94% 29.99 in 5.0 mi ESE 4.6 mph - N/A   Overcast
10:15 AM 78.8 °F - 77.0 °F 94% 29.99 in 3.0 mi ESE 3.5 mph - N/A   Overcast
10:35 AM 80.6 °F 87.1 °F 77.0 °F 89% 29.99 in 2.0 mi ENE 3.5 mph - N/A   Mostly Cloudy
10:53 AM 84.9 °F 95.3 °F 77.0 °F 77% 29.98 in - NE 4.6 mph - N/A   Unknown
10:55 AM 80.6 °F 88.1 °F 78.8 °F 94% 30.00 in 4.0 mi East 3.5 mph - N/A   Mostly Cloudy
11:15 AM 82.4 °F 90.9 °F 77.0 °F 84% 30.00 in 4.0 mi ESE 4.6 mph - N/A   Haze
11:35 AM 82.4 °F 90.9 °F 77.0 °F 84% 30.00 in 7.0 mi East 4.6 mph - N/A   Mostly Cloudy
11:53 AM 86.0 °F 96.0 °F 75.9 °F 72% 29.99 in - East 5.8 mph - N/A   Unknown
11:55 AM 84.2 °F 92.3 °F 75.2 °F 74% 30.00 in 10.0 mi East 5.8 mph - N/A   Mostly Cloudy
12:15 PM 84.2 °F 92.3 °F 75.2 °F 74% 30.00 in 10.0 mi NE 4.6 mph - N/A   Scattered Clouds
12:35 PM 86.0 °F 96.9 °F 77.0 °F 74% 29.99 in 10.0 mi NNE 6.9 mph - N/A   Scattered Clouds
12:53 PM 88.0 °F 98.5 °F 75.9 °F 67% 29.98 in - Variable 4.6 mph - N/A   Unknown
12:55 PM 86.0 °F 95.1 °F 75.2 °F 70% 29.99 in 10.0 mi ENE 4.6 mph - N/A   Scattered Clouds
1:15 PM 87.8 °F 97.6 °F 75.2 °F 66% 29.98 in 10.0 mi NE 3.5 mph - N/A   Scattered Clouds
1:35 PM 87.8 °F 95.6 °F 73.4 °F 62% 29.97 in 10.0 mi ESE 3.5 mph - N/A   Scattered Clouds
1:53 PM 90.0 °F 100.2 °F 75.0 °F 61% 29.95 in - Variable 3.5 mph - N/A   Unknown
1:55 PM 87.8 °F 95.6 °F 73.4 °F 62% 29.97 in 10.0 mi NNE 4.6 mph - N/A Thunderstorm Mostly Cloudy
2:15 PM 89.6 °F 98.2 °F 73.4 °F 59% 29.96 in 10.0 mi Calm Calm - N/A   Scattered Clouds
2:35 PM 89.6 °F 96.2 °F 71.6 °F 55% 29.97 in 10.0 mi Calm Calm - N/A   Clear
2:53 PM 93.0 °F 103.2 °F 73.9 °F 54% 29.95 in - Calm Calm - N/A   Unknown
2:55 PM 89.6 °F 96.2 °F 71.6 °F 55% 29.96 in 10.0 mi WSW 3.5 mph - N/A   Scattered Clouds
3:15 PM 89.6 °F 98.2 °F 73.4 °F 59% 29.95 in 10.0 mi North 6.9 mph - N/A   Overcast
3:35 PM 89.6 °F 98.2 °F 73.4 °F 59% 29.94 in 10.0 mi Calm Calm - N/A   Overcast
3:53 PM 95.0 °F 105.2 °F 73.9 °F 50% 29.91 in - ENE 6.9 mph - N/A   Unknown
3:55 PM 91.4 °F 98.4 °F 71.6 °F 52% 29.93 in 10.0 mi NE 5.8 mph - N/A   Mostly Cloudy
4:15 PM 87.8 °F 95.6 °F 73.4 °F 62% 29.93 in 10.0 mi NNE 5.8 mph - N/A   Overcast
4:35 PM 89.6 °F 96.2 °F 71.6 °F 55% 29.92 in 10.0 mi NE 3.5 mph - N/A   Scattered Clouds
4:53 PM 91.0 °F 101.6 °F 75.0 °F 59% 29.90 in - SSE 4.6 mph - N/A   Unknown
4:55 PM 89.6 °F 98.2 °F 73.4 °F 59% 29.91 in 10.0 mi SSE 4.6 mph - N/A   Clear
5:15 PM 89.6 °F 98.2 °F 73.4 °F 59% 29.92 in 10.0 mi SSE 6.9 mph - N/A Thunderstorm Mostly Cloudy
5:35 PM 87.8 °F 97.6 °F 75.2 °F 66% 29.92 in 10.0 mi SE 5.8 mph - N/A Rain , Thunderstorm Light Thunderstorms and Rain
5:53 PM 80.1 °F 84.5 °F 73.9 °F 81% 29.94 in - SSE 13.8 mph 21.9 mph N/A   Unknown
5:55 PM 78.8 °F - 73.4 °F 83% 29.95 in 5.0 mi South 12.7 mph 17.3 mph 0.05 in Rain , Thunderstorm Thunderstorms and Rain
6:15 PM 77.0 °F - 71.6 °F 83% 29.97 in 1.5 mi SSE 12.7 mph - 0.26 in Rain , Thunderstorm Heavy Thunderstorms and Rain
6:35 PM 75.2 °F - 71.6 °F 89% 29.94 in 5.0 mi South 6.9 mph - 0.40 in Rain , Thunderstorm Light Thunderstorms and Rain
6:53 PM 78.1 °F - 73.9 °F 87% 29.94 in - WSW 6.9 mph - 0.62 in   Unknown
6:55 PM 77.0 °F - 73.4 °F 89% 29.95 in 10.0 mi WSW 5.8 mph - 0.40 in Thunderstorm Thunderstorm
7:15 PM 77.0 °F - 71.6 °F 83% 29.96 in 4.0 mi ESE 12.7 mph 17.3 mph N/A Thunderstorm Overcast
7:35 PM 77.0 °F - 71.6 °F 83% 29.96 in 3.0 mi SE 8.1 mph 18.4 mph 0.08 in Rain , Thunderstorm Thunderstorms and Rain
7:53 PM 78.1 °F - 73.9 °F 87% 29.96 in - Calm Calm - 0.09 in   Unknown
7:55 PM 77.0 °F - 73.4 °F 89% 29.98 in 7.0 mi Calm Calm - 0.09 in   Overcast
8:15 PM 77.0 °F - 73.4 °F 89% 29.97 in 7.0 mi Calm Calm - N/A Thunderstorm Mostly Cloudy
8:35 PM 75.2 °F - 71.6 °F 89% 29.97 in 3.0 mi Calm Calm - N/A   Clear
8:53 PM 77.0 °F - 73.0 °F 88% 29.96 in - NNE 5.8 mph - N/A   Unknown
8:55 PM 75.2 °F - 71.6 °F 89% 29.97 in 7.0 mi NNE 5.8 mph - N/A   Clear
9:15 PM 75.2 °F - 71.6 °F 89% 29.97 in 10.0 mi Calm Calm - N/A   Clear
9:35 PM 73.4 °F - 71.6 °F 94% 29.97 in 7.0 mi Calm Calm - N/A   Clear
9:53 PM 77.0 °F - 73.0 °F 88% 29.98 in - Calm Calm - N/A   Unknown
9:55 PM 75.2 °F - 71.6 °F 89% 29.99 in 7.0 mi Calm Calm - N/A   Clear
10:15 PM 75.2 °F - 71.6 °F 89% 30.00 in 5.0 mi Calm Calm - N/A   Scattered Clouds
10:35 PM 73.4 °F - 71.6 °F 94% 30.00 in 5.0 mi North 3.5 mph - N/A   Scattered Clouds
10:53 PM 77.0 °F - 73.0 °F 88% 29.98 in - ENE 4.6 mph - N/A   Unknown
10:55 PM 73.4 °F - 71.6 °F 94% 30.00 in 7.0 mi ENE 3.5 mph - N/A   Mostly Cloudy
11:15 PM 73.4 °F - 71.6 °F 94% 30.00 in 7.0 mi Calm Calm - N/A   Mostly Cloudy
11:35 PM 73.4 °F - 71.6 °F 94% 30.00 in 7.0 mi Calm Calm - N/A   Scattered Clouds
11:53 PM 75.9 °F - 73.0 °F 91% 29.99 in - Calm Calm - N/A   Unknown
11:55 PM 73.4 °F - 71.6 °F 94% 30.00 in 7.0 mi Calm Calm - N/A   Clear